Regional Weather Roundup
Issued by NWS Charleston, WV

Home | Current Version | Previous Version | Graphics & Text | Print | Product List | Glossary On
Versions: 1 2 3 4 5 6 7 8 9 10 11 12 13 14 15 16 17 18 19 20 21 22 23 24 25 26 27
000
ASUS41 KRLX 222010
RWRRLX
West Virginia Regional Weather Roundup
National Weather Service Charleston WV
400 PM EDT WED OCT 22 2014

Note: "fair" indicates few or no clouds below 12,000 feet with no
significant weather and/or obstructions to visibility.

WVZ003-222100-
Northern Panhandle of West Virginia

CITY           SKY/WX    TMP DP  RH WIND       PRES   REMARKS
WHEELING       CLOUDY    48  40  73 N13       30.19R
$$

WVZ009-222100-
Northwest West Virginia

CITY           SKY/WX    TMP DP  RH WIND       PRES   REMARKS
PARKERSBURG    CLOUDY    51  41  68 N10       30.22S
$$

WVZ006-222100-
Western West Virginia

CITY           SKY/WX    TMP DP  RH WIND       PRES   REMARKS
HUNTINGTON     CLOUDY    51  43  74 NW7       30.22S
$$

WVZ015-222100-
West Central West Virginia

CITY           SKY/WX    TMP DP  RH WIND       PRES   REMARKS
CHARLESTON     CLOUDY    51  43  74 NW9       30.19S
$$

WVZ022-031-222100-
North Central West Virginia

CITY           SKY/WX    TMP DP  RH WIND       PRES   REMARKS
CLARKSBURG     CLOUDY    49  44  83 NW12G20   30.16S
MORGANTOWN     CLOUDY    51  41  68 NW6G22    30.15F
$$

WVZ025-035-042-045-222100-
Southern West Virginia

CITY           SKY/WX    TMP DP  RH WIND       PRES   REMARKS
BECKLEY        LGT RAIN  43  41  93 N7        30.16S FOG
LOGAN          CLOUDY    46  45  93 NW5       30.19S
BLUEFIELD      CLOUDY    45  39  79 VRB5      30.15S
LEWISBURG      CLOUDY    50  39  66 N13       30.13R
$$

WVZ047-222100-
Northern Mountains of West Virginia

CITY           SKY/WX    TMP DP  RH WIND       PRES   REMARKS
ELKINS         LGT RAIN  45  44  97 NW9       30.14S FOG
$$

WVZ052-222100-
Eastern Panhandle of West Virginia

CITY           SKY/WX    TMP DP  RH WIND       PRES   REMARKS
MARTINSBURG    CLOUDY    56  44  64 NW15G26   30.00S
PETERSBURG     CLOUDY    54  41  62 N8        30.08S
$$



USA.gov is the U.S. government's official web portal to all federal, state and local government web resources and services.